Location: Lake Arresoe
(56.0000°N, 12.5000°E)
Time: 18:09:19
(UTC+02:00)

Resurs 1-4 Rocket - Pass Details

Date: 01 August 2021
Orbit: 799 x 815 km, 98.6° (Epoch: 23 September)

Event Time Altitude Azimuth Distance (km) Brightness Sun altitude
Rises 00:55:11 0° 28° (NNE) 3,347 6.3 -15.8°
Reaches altitude 10° 00:59:46 10° 65° (ENE) 2,403 4.8 -15.9°
Maximum altitude 01:01:05 11° 80° (E) 2,340 4.6 -15.9°
Drops below altitude 10° 01:02:23 10° 94° (E) 2,396 4.5 -15.9°
Enters shadow 01:05:12 - 120° (ESE) 2,866 4.7 -15.9°
